FLOCK 2E-6 (41563 NORAD) Tracking and Keplerian Element Data

This shows tracking and keplerian element data for the satellite.

Feedback or suggestion? Click here.




ElementValue
Catalog41563
NameFLOCK 2E-6
Epoch Orbit9760
Epoch Day42.8874791
Epoch Year2018
RAAN221.3421
Inclination51.608
Eccentricity0.0008132
Argument of Perigee293.5961
Mean Anonmoly66.4212
Mean Motion16.41948843
Decay Rate0.11885136
L11 41563U 98067JM 18042.88747910 .11885136 12507-4 65820-3 0 9994
L22 41563 51.6080 221.3421 0008132 293.5961 66.4212 16.41948843 97606

Live tracking and technical data element details for FLOCK 2E-6 (NORAD 41563). FLOCK 2E-6 can be tracked NOW for your location showing map with azimuth and elevation plus other details from your city location.

Track the satellite on the map from your city or location and see movement details for azimuth, elevation, latitude, longitude, range, height, and movement on the map or in text.







IsCatalogInMostPopularTable: catalog: 41563, numindb: 100
Update: records affected: 1



GetName: 41563 FLOCK 2E-6

Hit Count: updated at: Mon, 20 Aug 2018 00:45:01 GMT